This demonstration page uses our WeatherBlox Daily Observations layout. Learn more.

Left ArrowRight Arrow

Hourly Observations for July 22, 2015

Temp ( °F °C ) Dew Point ( °F °C ) Humidity (%) Winds ( mph kmh ) Pressure ( in mb ) Visibility ( mi km ) Precip ( " mm )
12:51 am 00:51 Clear 81 27.2 47 8.3 30 30 WNW 8 13 29.71 1006 10 16.0934 N/A
1:51 am 01:51 Clear 81 27.2 48 8.9 32 32 N N/A 29.72 1006 10 16.0934 N/A
2:51 am 02:51 Clear 78 25.6 49 9.4 36 36 NE 5 7 29.73 1007 10 16.0934 N/A
3:51 am 03:51 Clear 70 21.1 51 10.6 51 51 NNW 12 19 29.74 1007 10 16.0934 N/A
4:51 am 04:51 Clear 78 25.6 51 10.6 39 39 NNW 7 11 29.75 1007 10 16.0934 N/A
5:51 am 05:51 Sunny 77 25 52 11.1 42 42 NNW 8 13 29.77 1008 10 16.0934 N/A
6:51 am 06:51 Sunny 82 27.8 52 11.1 35 35 NW 7 11 29.78 1008 10 16.0934 N/A
7:51 am 07:51 Sunny 86 30 46 7.8 25 25 WNW 13 20 29.78 1009 10 16.0934 N/A
8:51 am 08:51 Sunny 89 31.7 47 8.3 23 23 NW 16 26 29.78 1009 10 16.0934 N/A
9:51 am 09:51 Sunny 92 33.3 48 8.9 22 22 W 15 24 29.77 1008 10 16.0934 N/A
10:51 am 10:51 Mostly Sunny 94 34.4 48 8.9 21 21 WNW 12 19 29.76 1008 10 16.0934 N/A
11:51 am 11:51 Cloudy 95 35 49 9.4 21 21 W 10 17 29.75 1008 10 16.0934 N/A
12:51 pm 12:51 Mostly Sunny 96 35.6 48 8.9 19 19 WSW 8 13 29.74 1007 10 16.0934 N/A
1:51 pm 13:51 Sunny 94 34.4 51 10.6 23 23 WSW 9 15 29.72 1007 10 16.0934 N/A
2:51 pm 14:51 Sunny 87 30.6 56 13.3 35 35 SSW 15 24 29.74 1007 10 16.0934 N/A
3:51 pm 15:51 Mostly Cloudy with Light Rain 86 30 60 15.6 42 42 SW 8 13 29.72 1006 10 16.0934 N/A
4:51 pm 16:51 Mostly Sunny 90 32.2 55 12.8 31 31 VRB 3 6 29.71 1006 10 16.0934 N/A
5:51 pm 17:51 Sunny 90 32.2 52 11.1 27 27 S 6 9 29.7 1006 10 16.0934 N/A
6:51 pm 18:51 Sunny 89 31.7 53 11.7 29 29 SW 3 6 29.71 1006 10 16.0934 N/A
7:51 pm 19:51 Mostly Cloudy 87 30.6 57 13.9 36 36 N N/A 29.73 1007 10 16.0934 N/A
8:51 pm 20:51 Cloudy 87 30.6 54 12.2 32 32 N 7 11 29.74 1007 10 16.0934 N/A
9:51 pm 21:51 Clear 87 30.6 53 11.7 31 31 SSE 8 13 29.76 1008 10 16.0934 N/A
10:51 pm 22:51 Mostly Clear 85 29.4 54 12.2 35 35 SSE 3 6 29.78 1008 10 16.0934 N/A
11:51 pm 23:51 Mostly Clear 83 28.3 56 13.3 40 40 E 5 7 29.78 1009 10 16.0934 N/A

Powered by AerisWeather